Regional Weather Roundup
Issued by NWS

Home | Current Version | Previous Version | Text Only | Print | Product List | Glossary On
Versions: 1 2 3 4 5 6 7 8 9 10 11 12 13 14 15 16 17 18 19 20 21 22 23 24 25 26 27 28 29 30 31 32 33 34 35 36 37 38 39 40 41 42 43 44 45 46 47 48 49 50
000
ASUS43 KFSD 052010
RWRSD

WEATHER ROUNDUP FOR SOUTH DAKOTA
NATIONAL WEATHER SERVICE SIOUX FALLS SD
300 PM CDT SUN JUL 05 2015

NOTE: "FAIR" INDICATES FEW OR NO CLOUDS BELOW 12,000 FEET WITH NO
SIGNIFICANT WEATHER AND/OR OBSTRUCTIONS TO VISIBILITY.


SDZ001>005-009-010-012>017-052100-
NORTHWEST AND NORTH CENTRAL SOUTH DAKOTA

CITY           SKY/WX    TMP DP  RH WIND       PRES   REMARKS
BUFFALO          N/A     75  59  57 N21       29.90R
FAITH            N/A     80  63  55 NE13      29.87S
MOBRIDGE       PTSUNNY   83  69  62 E8        29.77R
$$

SDZ012>016-024>037-041>051-057-063-072>074-052100-
SOUTHWEST AND SOUTH CENTRAL SOUTH DAKOTA

CITY           SKY/WX    TMP DP  RH WIND       PRES   REMARKS
RAPID CTY ARPT CLOUDY    79  65  62 N18G24    29.90S
PIERRE         PTSUNNY   87  70  56 E8        29.75S
CUSTER         CLOUDY    73  59  61 NE12      30.02R
ELLSWORTH AFB  CLOUDY    77  65  66 N16       29.90S
PHILIP         PTSUNNY   87  67  51 E15       29.79F
PINE RIDGE     PTSUNNY   88  71  57 E7        29.81F
SPEARFISH      PTSUNNY   73  63  68 N6        30.00R
WINNER         FAIR      94  65  38 S8        29.75S HX  96
$$

SDZ004>011-016>023-039-040-052100-
NORTHEAST SOUTH DAKOTA

CITY           SKY/WX    TMP DP  RH WIND       PRES   REMARKS
ABERDEEN       CLOUDY    88  71  57 W6        29.75F
WATERTOWN      MOSUNNY   87  70  56 SW12      29.79F
BROOKINGS      SUNNY     88  68  51 SW10      29.82S
SISSETON         N/A     87  69  54 NW13      29.75S
$$

SDZ017-020-022-023-036>040-048>070-052100-
SOUTHEAST SOUTH DAKOTA

CITY           SKY/WX    TMP DP  RH WIND       PRES   REMARKS
SIOUX FALLS    MOSUNNY   89  68  49 S16G25    29.80S
HURON          MOSUNNY   89  72  56 VRB6      29.75S HX  96
CHAMBERLAIN    MOSUNNY   88  73  61 E5        29.76S HX  95
MITCHELL       MOSUNNY   91  70  49 S13G18    29.76F HX  96
YANKTON        SUNNY     88  73  62 S12       29.76S HX  96
$$

ABBREVIATIONS USED IN REMARKS
   TC - TEMPERATURE IN CELSIUS
  WCI - WIND CHILL INDEX
   HX - HEAT INDEX
  VSB - VISIBILITY



USA.gov is the U.S. government's official web portal to all federal, state and local government web resources and services.